Location: Newark
(52.4787°S, 179.0532°W)
Time: 08:36:38
(UTC+00:00)

Vanguard 1 - Pass Details

Date: 18 November 2019
Orbit: 652 x 3832 km, 34.3° (Epoch: 09 December)

Event Time Altitude Azimuth Distance (km) Brightness Sun altitude
Rises 08:20:44 0° 358° (N) 5,182 13.4 -6.2°
Reaches altitude 10° 08:25:40 10° 17° (NNE) 4,759 13.0 -6.7°
Maximum altitude 08:33:20 17° 51° (NE) 4,987 13.0 -7.6°
Drops below altitude 10° 08:43:06 10° 82° (E) 6,313 13.7 -8.6°
Sets 08:51:35 0° 97° (E) 7,775 14.3 -9.4°
